Location: Absher
(46.5583°N, 107.9840°W)
Time: 22:55:10
(UTC+00:00)

UWE-3 - Visible Passes

Search period start: 31 March 2023 00:00
Search period end: 10 April 2023 00:00
Orbit: 579 x 670 km, 97.7° (Epoch: 30 March)

Date Brightness Start Highest point End Pass type
(mag) Time Alt. Az. Time Alt. Az. Time Alt. Az.
31 Mar ? 09:23:02 10° NE 09:26:12 24° E 09:26:12 24° E visible
31 Mar ? 10:58:56 10° N 11:03:01 36° WNW 11:03:27 35° W visible
01 Apr ? 09:41:25 10° NNE 09:45:13 37° E 09:45:13 37° E visible
01 Apr ? 11:18:00 10° N 11:21:35 24° WNW 11:22:30 23° W visible
02 Apr ? 09:59:57 10° NNE 10:04:14 59° E 10:04:14 59° E visible
02 Apr ? 11:37:15 10° NNW 11:40:05 17° WNW 11:41:30 15° W visible
03 Apr ? 10:18:36 10° NNE 10:23:03 89° WNW 10:23:14 82° SSW visible
03 Apr ? 11:57:02 10° NW 11:58:31 12° WNW 11:59:59 10° WNW visible
04 Apr ? 09:02:27 10° NE 09:04:57 15° E 09:04:57 15° E visible
04 Apr ? 10:37:21 10° N 10:41:42 57° WNW 10:42:13 53° WSW visible
05 Apr ? 09:20:25 10° NE 09:23:55 23° E 09:23:55 23° E visible
05 Apr ? 10:56:12 10° N 11:00:16 37° WNW 11:01:12 33° W visible
06 Apr ? 09:38:41 10° NNE 09:42:43 35° E 09:42:53 35° ESE visible
06 Apr ? 11:15:11 10° N 11:18:46 25° WNW 11:20:09 21° W visible
07 Apr ? 09:57:08 10° NNE 10:01:26 55° E 10:01:50 53° ESE visible
07 Apr ? 11:34:22 10° NNW 11:37:13 17° WNW 11:39:06 13° W visible
08 Apr ? 10:15:43 10° NNE 10:20:05 87° ESE 10:20:46 63° S visible
08 Apr ? 11:54:00 10° NW 11:55:36 12° WNW 11:57:10 10° W visible
09 Apr ? 08:59:41 10° NE 09:02:01 14° E 09:02:25 14° E visible
09 Apr ? 10:34:23 10° N 10:38:40 60° WNW 10:39:41 46° SW visible
